カタログに戻る

FENGYUN 1C DEB

運用中PO
NORAD 30569·DEBRIS·🇨🇳 China

打ち上げ May 10, 1999 から Taiyuan Satellite Launch Center

Loading…

次のパス (今後24時間)

TLE

最新Source: Space-Track

元期: Sep 14, 2026, 09:53 UTC

1 30569U 99025ALK 26257.41207064  .00017565  00000-0  19635-2 0  9994
2 30569  98.7461  66.0983 0004540 277.5522  82.5175 14.87006584 22785

AllMySatでFENGYUN 1C DEBをリアルタイム追跡

Download on the App Store